Location: Auckland
(36.8670°S, 174.7670°E)
Time: 03:28:49
(UTC+13:00)

NOSS 3-2 (C) - Pass Details

Date: 24 January 2019
Orbit: 839 x 1373 km, 63.4° (Epoch: 17 February)

Event Time Altitude Azimuth Distance (km) Brightness Sun altitude
Exits shadow 23:03:16 41° 41° (NE) 1,834 4.4 -23.7°
Maximum altitude 23:04:41 45° 66° (ENE) 1,741 4.4 -23.9°
Drops below altitude 10° 23:12:01 10° 135° (SE) 3,202 6.3 -24.8°
Sets 23:14:48 0° 141° (SE) 4,100 6.9 -25.1°
